Погода в Сан-Марино

Сан-Марино     43°55′56″N   12°26′55″E
темп.,
°C
ветер,
м/с
пор.,
м/с
влажн.,
%
обл.,
%
осадки,
мм/ч
давл.,
гПа
погр.,
м
16 сентября, чт
чт1623:00+23зюз2252100 0.0 101655
02:00+23ююз2355100 0.0 101663
05:00+20ююз4565100 0.0 1016110
08:00+21ю3556100 0.0 1016147
11:00+24ю2349100 0.0 1017225
14:00+26ю4842100 0.0 10161066
17:00+30ююз593997 0.1 10131693
20:00+23з1171100 0.4 101329
17 сентября, пт
пт1723:00+22юз237298 0.0 101448
02:00+20юз228157 0.0 101329
05:00+20ююз23820 0.1 101166
08:00+20юз23800 0.1 1012116
11:00+26сз46480 0.0 10121440
14:00+25ссв455398 0.1 1011768
17:00+21всв227438 0.3 1011321
20:00+19в228950 0.7 101274
18 сентября, сб
сб1823:00+19ююз118394 0.0 101236
02:00+19зюз227979 0.0 101237
05:00+17зюз118442 0.0 101234
08:00+19зюз12765 0.0 101273
11:00+24ссв22533 0.0 1013962
14:00+24св435673 0.1 1012692
17:00+25в335740 0.1 1011715
20:00+20вюв227868 0.2 101165
19 сентября, вс
вс1923:00+20ююз227041 0.0 101238
02:00+18юз337329 0.0 101247
05:00+18ююз237365 0.0 101153
08:00+19ююз24705 0.0 1011109
11:00+26юз484222 0.0 10111524
14:00+29юз6103642 0.1 10102222
17:00+27з7123616 0.0 10101915
20:00+22з612435 0.0 1011648
20 сентября, пн
пн2023:00+18юз35455 0.0 1013124
02:00+16юз22650 0.0 101454
05:00+15юз22715 0.0 101540
08:00+17юз22675 0.0 101683
11:00+23ссв23461 0.0 10171207
14:00+22св535577 0.0 1017819
17:00+22всв43610 0.0 1017664
20:00+18вюв237912 0.0 1018157